GW4469 Weather Reports


Display with metric or nautical units.
time (UTC)temp
F
wind
direction
speed
MPH
gust
MPH
rain 1hr
in
rain 24hr
in
rain mn
in
humidity
%
barometer
mb
20260502130653 50 306 0.0 0.0 0.00 0.00 0.00 31 1019.8
20260502130151 50 261 0.0 0.0 0.00 0.00 0.00 31 1019.7
20260502123636 50 105 0.0 0.0 0.00 0.00 0.00 30 1019.4
20260502123133 51 105 0.0 0.0 0.00 0.00 0.00 29 1019.4
20260502122630 51 105 0.0 1.0 0.00 0.00 0.00 28 1019.3
20260502122126 52 180 0.0 1.0 0.00 0.00 0.00 27 1019.3
20260502121625 53 286 0.0 1.0 0.00 0.00 0.00 26 1019.2
20260502121121 54 119 2.0 3.0 0.00 0.00 0.00 27 1019.2
20260502120618 56 282 0.0 1.0 0.00 0.00 0.00 25 1019.3
20260502120115 56 102 2.0 2.0 0.00 0.00 0.00 26 1019.3
20260502115613 54 295 2.0 2.0 0.00 0.00 0.00 27 1019.1
20260502115108 52 285 0.0 1.0 0.00 0.00 0.00 29 1019.3
20260502114605 51 325 0.0 1.0 0.00 0.00 0.00 29 1019.2
20260502114102 51 8 0.0 1.0 0.00 0.00 0.00 28 1019.2
20260502113559 52 289 0.0 1.0 0.00 0.00 0.00 26 1019.1
20260502113058 53 261 0.0 0.0 0.00 0.00 0.00 26 1019.4
20260502112555 54 261 0.0 2.0 0.00 0.00 0.00 25 1019.5
20260502112053 54 291 0.0 2.0 0.00 0.00 0.00 26 1019.2
20260502111550 54 342 0.0 0.0 0.00 0.00 0.00 25 1019.2
20260502111047 54 326 0.0 3.0 0.00 0.00 0.00 25 1019.3
20260502110544 54 306 0.0 1.0 0.00 0.00 0.00 25 1019.4
20260502110042 54 297 0.0 2.0 0.00 0.00 0.00 24 1019.2
20260502105539 54 305 2.0 2.0 0.00 0.00 0.00 24 1019.4
20260502105037 54 279 0.0 2.0 0.00 0.00 0.00 24 1019.3
20260502104533 55 306 0.0 2.0 0.00 0.00 0.00 23 1019.2
20260502104031 55 300 0.0 0.0 0.00 0.00 0.00 23 1019.2
20260502103529 56 297 1.0 2.0 0.00 0.00 0.00 23 1019.2
20260502103027 56 81 0.0 1.0 0.00 0.00 0.00 23 1019.1
20260502102523 57 0 0.0 1.0 0.00 0.00 0.00 22 1019.4
20260502102020 57 337 1.0 1.0 0.00 0.00 0.00 22 1019.4
20260502101518 58 81 0.0 1.0 0.00 0.00 0.00 21 1019.5
20260502101016 59 351 0.0 3.0 0.00 0.00 0.00 21 1019.2
20260502100514 59 290 3.0 3.0 0.00 0.00 0.00 21 1019.4
20260502091449 52 301 2.0 4.0 0.00 0.00 0.00 25 1019.4
20260502090946 51 74 0.0 2.0 0.00 0.00 0.00 26 1019.4
20260502090443 51 292 3.0 3.0 0.00 0.00 0.00 26 1019.2
20260502071337 52 285 0.0 1.0 0.00 0.00 0.00 27 1019.5
20260502070835 52 285 0.0 2.0 0.00 0.00 0.00 26 1019.5
20260502070333 53 279 0.0 0.0 0.00 0.00 0.00 25 1019.5
20260502065832 53 270 1.0 1.0 0.00 0.00 0.00 25 1019.5
20260502065329 53 286 1.0 1.0 0.00 0.00 0.00 26 1019.4
20260502064827 53 285 1.0 2.0 0.00 0.00 0.00 26 1019.4
20260502064325 53 279 0.0 2.0 0.00 0.00 0.00 25 1019.4
20260502063822 53 286 1.0 1.0 0.00 0.00 0.00 25 1019.3
20260502063320 53 270 0.0 2.0 0.00 0.00 0.00 24 1019.3
20260502062816 54 285 1.0 1.0 0.00 0.00 0.00 24 1019.2
20260502062314 54 289 0.0 1.0 0.00 0.00 0.00 25 1019.3
20260502061813 54 8 0.0 0.0 0.00 0.00 0.00 24 1019.4
20260502061310 55 8 0.0 1.0 0.00 0.00 0.00 25 1019.3
20260502060805 55 270 0.0 1.0 0.00 0.00 0.00 23 1019.1
20260502060301 55 277 0.0 2.0 0.00 0.00 0.00 23 1019.0
20260502055759 55 286 0.0 2.0 0.00 0.00 0.00 23 1018.8
20260502055256 56 262 0.0 2.0 0.00 0.00 0.00 22 1018.8
20260502054755 56 270 1.0 1.0 0.00 0.00 0.00 22 1018.7
20260502054253 57 270 1.0 1.0 0.00 0.00 0.00 21 1018.6
20260502053750 57 270 0.0 1.0 0.00 0.00 0.00 21 1018.7
20260502053247 58 270 0.0 0.0 0.00 0.00 0.00 20 1018.7
20260502052745 59 270 0.0 0.0 0.00 0.00 0.00 19 1018.6
20260502052243 59 270 0.0 1.0 0.00 0.00 0.00 20 1018.7
20260502051740 60 325 0.0 2.0 0.00 0.00 0.00 19 1018.7
20260502051239 60 345 0.0 1.0 0.00 0.00 0.00 18 1018.7
20260502050735 61 0 0.0 0.0 0.00 0.00 0.00 18 1018.6
20260502050231 61 99 0.0 1.0 0.00 0.00 0.00 18 1018.6
20260502045728 62 103 1.0 2.0 0.00 0.00 0.00 18 1018.5
20260502045225 62 74 1.0 1.0 0.00 0.00 0.00 18 1018.5
20260502044722 63 81 0.0 0.0 0.00 0.00 0.00 17 1018.4
20260502044218 64 90 1.0 2.0 0.00 0.00 0.00 17 1018.4
20260502043716 64 327 0.0 2.0 0.00 0.00 0.00 17 1018.2
20260502043213 65 338 0.0 3.0 0.00 0.00 0.00 17 1018.3
20260502042712 65 337 0.0 3.0 0.00 0.00 0.00 16 1018.2
20260502042210 65 309 2.0 2.0 0.00 0.00 0.00 16 1018.5
20260502041708 66 308 2.0 3.0 0.00 0.00 0.00 16 1018.2
20260502041204 65 0 0.0 1.0 0.00 0.00 0.00 16 1018.3
20260502040701 66 300 0.0 1.0 0.00 0.00 0.00 17 1018.1
20260502040158 66 286 0.0 1.0 0.00 0.00 0.00 16 1018.0
20260502035655 66 0 0.0 2.0 0.00 0.00 0.00 16 1017.8
20260502035152 66 285 1.0 2.0 0.00 0.00 0.00 16 1017.6
20260502034649 67 0 0.0 3.0 0.00 0.00 0.00 16 1017.6
20260502034147 67 294 0.0 3.0 0.00 0.00 0.00 16 1017.7
20260502033645 68 353 0.0 2.0 0.00 0.00 0.00 16 1017.6
20260502033143 68 292 2.0 2.0 0.00 0.00 0.00 16 1017.5
20260502032639 68 331 0.0 2.0 0.00 0.00 0.00 16 1017.3
20260502032135 68 37 2.0 4.0 0.00 0.00 0.00 15 1017.3
20260502031633 69 300 2.0 4.0 0.00 0.00 0.00 15 1017.4
20260502031131 69 350 0.0 4.0 0.00 0.00 0.00 15 1017.6
20260502030629 69 278 0.0 3.0 0.00 0.00 0.00 15 1017.2
20260502030127 70 270 1.0 3.0 0.00 0.00 0.00 15 1017.0
20260502025624 70 5 0.0 3.0 0.00 0.00 0.00 15 1017.3
20260502025122 70 8 0.0 3.0 0.00 0.00 0.00 14 1017.3
20260502024620 71 0 1.0 2.0 0.00 0.00 0.00 14 1017.2
20260502024117 71 286 1.0 4.0 0.00 0.00 0.00 14 1016.9
20260502023615 71 337 2.0 4.0 0.00 0.00 0.00 14 1017.0
20260502023112 72 276 1.0 5.0 0.00 0.00 0.00 14 1017.2
20260502022609 72 340 3.0 5.0 0.00 0.00 0.00 14 1017.1
20260502022106 73 324 4.0 4.0 0.00 0.00 0.00 14 1016.9
20260502021603 73 85 0.0 4.0 0.00 0.00 0.00 14 1017.0
20260502021100 73 326 2.0 7.0 0.00 0.00 0.00 14 1017.1
20260502020557 73 3 3.0 9.0 0.00 0.00 0.00 14 1017.2
20260502020054 74 32 2.0 6.0 0.00 0.00 0.00 14 1017.0
20260502015552 74 90 2.0 8.0 0.00 0.00 0.00 14 1016.7
20260502015048 75 357 8.0 11.0 0.00 0.00 0.00 14 1016.6
20260502014545 75 54 6.0 6.0 0.00 0.00 0.00 14 1016.7
20260502014043 76 3 7.0 11.0 0.00 0.00 0.00 14 1016.9
20260502013538 77 357 3.0 9.0 0.00 0.00 0.00 13 1016.7
20260502013034 78 352 5.0 9.0 0.00 0.00 0.00 13 1016.7
20260502012532 79 81 4.0 9.0 0.00 0.00 0.00 13 1016.7
20260502012029 79 55 2.0 8.0 0.00 0.00 0.00 13 1016.7
20260502011526 78 17 4.0 11.0 0.00 0.00 0.00 13 1016.5
20260502011022 78 63 3.0 7.0 0.00 0.00 0.00 13 1016.4
20260502010520 78 8 2.0 7.0 0.00 0.00 0.00 13 1016.7
20260502010016 78 90 3.0 12.0 0.00 0.00 0.00 13 1016.3
20260502005514 79 338 2.0 9.0 0.00 0.00 0.00 14 1016.5
20260502005012 79 314 4.0 12.0 0.00 0.00 0.00 14 1016.6
20260502004507 79 92 6.0 9.0 0.00 0.00 0.00 14 1016.4
20260502004004 79 32 2.0 10.0 0.00 0.00 0.00 14 1016.5
20260502003502 79 53 3.0 9.0 0.00 0.00 0.00 14 1016.4
20260502002957 79 315 3.0 11.0 0.00 0.00 0.00 14 1016.3
20260502002455 79 275 4.0 13.0 0.00 0.00 0.00 14 1016.4
20260502001952 80 322 4.0 11.0 0.00 0.00 0.00 13 1016.3
20260502001449 80 290 7.0 12.0 0.00 0.00 0.00 14 1016.1
20260502000948 81 311 0.0 8.0 0.00 0.00 0.00 14 1016.2
20260502000447 81 86 2.0 8.0 0.00 0.00 0.00 14 1016.2
20260501235941 81 351 4.0 13.0 0.00 0.00 0.00 14 1016.3
20260501235437 81 26 4.0 12.0 0.00 0.00 0.00 14 1016.1
20260501234932 81 24 8.0 15.0 0.00 0.00 0.00 14 1016.3
20260501234429 81 21 2.0 10.0 0.00 0.00 0.00 14 1016.2
20260501233928 81 4 2.0 13.0 0.00 0.00 0.00 14 1016.0
20260501233425 81 18 2.0 8.0 0.00 0.00 0.00 14 1016.1
20260501232921 82 297 6.0 10.0 0.00 0.00 0.00 14 1015.9
20260501232418 81 86 5.0 8.0 0.00 0.00 0.00 14 1015.9
20260501231915 82 12 7.0 8.0 0.00 0.00 0.00 14 1015.9
20260501231414 82 334 6.0 9.0 0.00 0.00 0.00 14 1016.0
20260501230912 82 59 3.0 14.0 0.00 0.00 0.00 14 1016.1
20260501230410 82 274 3.0 11.0 0.00 0.00 0.00 14 1016.0
20260501225907 82 49 2.0 10.0 0.00 0.00 0.00 14 1015.9
20260501225405 83 81 5.0 12.0 0.00 0.00 0.00 14 1016.2
20260501224900 82 326 2.0 17.0 0.00 0.00 0.00 14 1016.0
20260501224358 82 0 9.0 10.0 0.00 0.00 0.00 14 1016.4
20260501223854 82 281 5.0 8.0 0.00 0.00 0.00 14 1016.2
20260501223350 82 333 9.0 12.0 0.00 0.00 0.00 14 1015.9
20260501222846 81 40 2.0 13.0 0.00 0.00 0.00 14 1016.1
20260501222344 82 258 3.0 6.0 0.00 0.00 0.00 14 1016.3
20260501221840 81 273 8.0 16.0 0.00 0.00 0.00 14 1016.3
20260501221338 82 281 6.0 11.0 0.00 0.00 0.00 15 1016.2
20260501220836 82 310 7.0 12.0 0.00 0.00 0.00 14 1016.5
20260501220333 81 355 3.0 5.0 0.00 0.00 0.00 15 1016.2
20260501215829 80 326 2.0 9.0 0.00 0.00 0.00 15 1016.4
20260501215326 80 16 3.0 9.0 0.00 0.00 0.00 15 1016.5
20260501214821 81 262 0.0 8.0 0.00 0.00 0.00 14 1016.4
20260501214317 81 280 4.0 9.0 0.00 0.00 0.00 14 1016.6
20260501213813 82 266 5.0 9.0 0.00 0.00 0.00 15 1017.0
20260501213309 82 285 3.0 3.0 0.00 0.00 0.00 14 1016.7
20260501212805 81 330 4.0 12.0 0.00 0.00 0.00 15 1016.9
20260501212305 82 299 6.0 15.0 0.00 0.00 0.00 14 1017.0
20260501211759 81 73 7.0 10.0 0.00 0.00 0.00 15 1016.9
20260501211256 80 301 3.0 6.0 0.00 0.00 0.00 16 1017.0
20260501210753 79 312 0.0 6.0 0.00 0.00 0.00 15 1017.2
20260501210250 81 279 5.0 9.0 0.00 0.00 0.00 14 1017.2
20260501205746 82 261 6.0 6.0 0.00 0.00 0.00 14 1017.3
20260501205243 82 0 0.0 4.0 0.00 0.00 0.00 14 1016.9
20260501204740 82 270 2.0 5.0 0.00 0.00 0.00 14 1017.2
20260501204237 83 45 0.0 6.0 0.00 0.00 0.00 13 1017.1
20260501203733 83 306 1.0 11.0 0.00 0.00 0.00 13 1017.0
20260501203231 82 290 2.0 7.0 0.00 0.00 0.00 14 1017.2
20260501202727 81 341 4.0 9.0 0.00 0.00 0.00 14 1017.5
20260501202224 82 348 2.0 6.0 0.00 0.00 0.00 13 1017.1
20260501201721 83 81 3.0 10.0 0.00 0.00 0.00 13 1017.1
20260501201218 82 132 2.0 3.0 0.00 0.00 0.00 15 1017.2
20260501200715 81 329 5.0 8.0 0.00 0.00 0.00 14 1017.5
20260501200212 81 274 10.0 10.0 0.00 0.00 0.00 14 1017.2
20260501195709 82 67 0.0 6.0 0.00 0.00 0.00 13 1017.2
20260501195205 82 338 6.0 12.0 0.00 0.00 0.00 14 1017.3
20260501194701 82 105 1.0 9.0 0.00 0.00 0.00 14 1017.4
20260501194156 82 40 3.0 8.0 0.00 0.00 0.00 14 1017.6
20260501193654 80 110 5.0 8.0 0.00 0.00 0.00 15 1017.6
20260501193152 80 79 4.0 11.0 0.00 0.00 0.00 14 1017.7
20260501192649 80 24 2.0 9.0 0.00 0.00 0.00 15 1017.4
20260501192146 80 58 3.0 10.0 0.00 0.00 0.00 14 1017.7
20260501191643 80 35 6.0 12.0 0.00 0.00 0.00 15 1017.8
20260501191141 79 100 4.0 5.0 0.00 0.00 0.00 16 1017.7
20260501190637 79 32 3.0 6.0 0.00 0.00 0.00 15 1017.7
20260501190137 79 10 2.0 10.0 0.00 0.00 0.00 14 1018.0
20260501185629 80 45 0.0 7.0 0.00 0.00 0.00 14 1018.0
20260501185124 79 3 5.0 5.0 0.00 0.00 0.00 15 1018.3
20260501184621 79 37 5.0 7.0 0.00 0.00 0.00 15 1018.3
20260501184121 80 57 3.0 4.0 0.00 0.00 0.00 14 1018.0
20260501183618 80 270 1.0 6.0 0.00 0.00 0.00 14 1018.2
20260501183114 80 346 9.0 10.0 0.00 0.00 0.00 14 1018.2
20260501182611 80 13 0.0 3.0 0.00 0.00 0.00 15 1018.2
20260501182108 79 103 0.0 11.0 0.00 0.00 0.00 15 1018.5
20260501181605 78 11 3.0 7.0 0.00 0.00 0.00 15 1018.4
20260501181102 78 75 4.0 9.0 0.00 0.00 0.00 15 1018.3
20260501180600 79 74 2.0 5.0 0.00 0.00 0.00 15 1018.6
20260501180055 78 292 2.0 5.0 0.00 0.00 0.00 15 1018.5
20260501175553 79 274 6.0 6.0 0.00 0.00 0.00 15 1018.4
20260501175049 78 83 0.0 4.0 0.00 0.00 0.00 16 1018.3
20260501174546 77 220 3.0 6.0 0.00 0.00 0.00 15 1018.3
20260501174044 77 350 5.0 7.0 0.00 0.00 0.00 15 1018.5
20260501173541 77 313 0.0 5.0 0.00 0.00 0.00 16 1018.6
20260501173038 77 52 2.0 5.0 0.00 0.00 0.00 16 1018.4
20260501172533 77 352 3.0 7.0 0.00 0.00 0.00 16 1018.4
20260501172029 76 54 5.0 7.0 0.00 0.00 0.00 16 1018.5
20260501171525 77 78 2.0 6.0 0.00 0.00 0.00 16 1018.4
20260501171022 77 57 0.0 5.0 0.00 0.00 0.00 16 1018.4
20260501170519 76 144 0.0 6.0 0.00 0.00 0.00 16 1018.5
20260501170016 76 355 2.0 3.0 0.00 0.00 0.00 16 1018.5
20260501165514 76 75 3.0 7.0 0.00 0.00 0.00 16 1018.4
20260501165011 75 47 3.0 7.0 0.00 0.00 0.00 17 1018.7
20260501164509 74 54 0.0 4.0 0.00 0.00 0.00 17 1018.5
20260501164005 74 40 0.0 6.0 0.00 0.00 0.00 17 1018.4
20260501163502 74 47 3.0 4.0 0.00 0.00 0.00 17 1018.5
20260501162958 74 30 3.0 8.0 0.00 0.00 0.00 17 1018.4
20260501162455 73 355 2.0 3.0 0.00 0.00 0.00 18 1018.2
20260501161952 72 80 7.0 7.0 0.00 0.00 0.00 18 1018.3
20260501161449 71 36 3.0 6.0 0.00 0.00 0.00 18 1018.4
20260501160945 71 84 5.0 6.0 0.00 0.00 0.00 18 1018.2
20260501160442 72 93 4.0 6.0 0.00 0.00 0.00 17 1018.3
20260501155940 72 48 0.0 5.0 0.00 0.00 0.00 18 1018.1
20260501155436 72 28 4.0 7.0 0.00 0.00 0.00 18 1018.3
20260501154933 71 121 2.0 6.0 0.00 0.00 0.00 18 1018.3
20260501154431 71 172 0.0 3.0 0.00 0.00 0.00 19 1018.1
20260501153927 71 38 5.0 7.0 0.00 0.00 0.00 18 1018.0
20260501153426 70 81 0.0 5.0 0.00 0.00 0.00 19 1018.1
20260501152920 70 68 3.0 6.0 0.00 0.00 0.00 19 1018.0
20260501152418 69 5 1.0 5.0 0.00 0.00 0.00 20 1018.0
20260501151916 68 67 3.0 4.0 0.00 0.00 0.00 22 1017.7
20260501151412 67 70 4.0 5.0 0.00 0.00 0.00 21 1018.0
20260501150908 67 148 2.0 6.0 0.00 0.00 0.00 21 1017.8
20260501150404 66 112 2.0 4.0 0.00 0.00 0.00 22 1017.6
20260501145901 65 142 0.0 3.0 0.00 0.00 0.00 22 1017.8
20260501145357 65 337 0.0 3.0 0.00 0.00 0.00 22 1017.7
20260501144855 65 45 2.0 3.0 0.00 0.00 0.00 22 1017.6
20260501144350 64 8 0.0 3.0 0.00 0.00 0.00 23 1017.6